This is the latest recevied weather packets stored in our database for station/object AB4KY. If no packets are shown the sender has not sent any weather packets the latest 10 day(s).
| Time | Temp. | Humidity | Pressure | Rain* | Wind** | Luminosity | Snow |
|---|---|---|---|---|---|---|---|
| 1778073706 | 8.89° C | 93% | 1010.1 hPa | 0 mm | - | 95 W/m² | - |
| 1778073404 | 8.89° C | 94% | 1009.8 hPa | 0 mm | - | 114 W/m² | - |
| 1778073100 | 8.33° C | 95% | 1009.6 hPa | 0 mm | - | 113 W/m² | - |
| 1778072797 | 8.33° C | 96% | 1009.8 hPa | 0 mm | - | 138 W/m² | - |
| 1778072494 | 8.33° C | 96% | 1009.9 hPa | 0 mm | - | 110 W/m² | - |
| 1778072192 | 7.78° C | 97% | 1010.2 hPa | 0 mm | - | 115 W/m² | - |
| 1778071889 | 7.78° C | 99% | 1010.1 hPa | 0 mm | - | 86 W/m² | - |
| 1778071587 | 7.22° C | 99% | 1009.9 hPa | 0 mm | - | 98 W/m² | - |
| 1778071285 | 7.22° C | 99% | 1009.5 hPa | 0 mm | - | 73 W/m² | - |
| 1778070982 | 7.78° C | 99% | 1010.1 hPa | 0 mm | - | 59 W/m² | - |
| 1778070681 | 7.78° C | 99% | 1009.9 hPa | 0 mm | - | 82 W/m² | - |
| 1778070377 | 7.78° C | 99% | 1009.8 hPa | 0 mm | - | 54 W/m² | - |
| 1778070075 | 7.78° C | 99% | 1009.6 hPa | 0 mm | - | 84 W/m² | - |
| 1778069773 | 7.22° C | 99% | 1009.6 hPa | 0 mm | - | 69 W/m² | - |
| 1778069469 | 7.22° C | 99% | 1009.4 hPa | 0 mm | - | 56 W/m² | - |
| 1778069167 | 7.22° C | 99% | 1009.8 hPa | 0 mm | - | 43 W/m² | - |
| 1778068864 | 7.22° C | 99% | 1010 hPa | 0 mm | - | 35 W/m² | - |
| 1778068562 | 6.67° C | 99% | 1009.6 hPa | 0 mm | - | 49 W/m² | - |
| 1778068260 | 6.67° C | 99% | 1009.7 hPa | 0 mm | - | 42 W/m² | - |
| 1778067957 | 6.67° C | 99% | 1009.4 hPa | 0 mm | - | 38 W/m² | - |
| 1778067655 | 6.67° C | 99% | 1009.2 hPa | 0 mm | - | 32 W/m² | - |
| 1778067353 | 6.67° C | 99% | 1009.2 hPa | 0 mm | - | 23 W/m² | - |
| 1778067050 | 6.67° C | 99% | 1009.1 hPa | 0 mm | - | 22 W/m² | - |
| 1778066746 | 6.67° C | 99% | 1009 hPa | 0 mm | - | 18 W/m² | - |
| 1778066444 | 6.67° C | 99% | 1009.2 hPa | 0 mm | - | 16 W/m² | - |
* Rain latest hour (hover to see other rain measurements)
** Current wind speed in m/s (hover to see current wind gust speed)